Regional Weather Roundup
Issued by NWS

Home | Current Version | Previous Version | Graphics & Text | Print | Product List | Glossary On
Versions: 1 2 3 4 5 6 7 8 9 10 11 12 13 14 15 16 17 18 19 20 21 22 23 24 25 26 27
000
ASUS45 KSLC 231610
RWRUT

UTAH REGIONAL WEATHER ROUNDUP
NATIONAL WEATHER SERVICE SALT LAKE CITY UT
1000 AM MDT SUN APR 23 2017

UTZ001>011-023>025-231700-

NORTHERN UTAH

CITY           SKY/WX    TMP DP  RH WIND       PRES   REMARKS
BRIGHAM CITY   PTSUNNY   53  38  57 CALM      29.87S
HILL AFB       MOSUNNY   55  34  44 VRB3      29.87
LOGAN          PTSUNNY   50  38  63 CALM      29.88F
OGDEN          MOSUNNY   56  36  47 N5        29.86S
SALT LAKE CITY MOSUNNY   58  38  47 NW9       29.85S
TOOELE VALLEY  SUNNY     54  41  62 N6        29.86S
WENDOVER       PTSUNNY   55  32  41 CALM      29.87S
HEBER CITY     SUNNY     52  30  43 CALM      29.90F
WEST JORDAN    SUNNY     62  43  49 SE16G22   29.85S

$$

UTZ011>015-024>027-231700-

CENTRAL/NORTHEAST UTAH

CITY           SKY/WX    TMP DP  RH WIND       PRES   REMARKS
PROVO AIRPORT  MOSUNNY   59  31  34 CALM      29.87F
MOAB/CANYONLAN PTSUNNY   61  20  20 VRB7      29.94F
DELTA          MOSUNNY   59  32  36 S6        29.86F
PRICE          PTSUNNY   52  19  27 CALM      30.00F
ROOSEVELT      CLOUDY    50  23  34 CALM      30.00F
VERNAL         CLOUDY    49  24  37 CALM      29.99F

$$

UTZ013>016-019>022-027-231700-

SOUTHERN UTAH

CITY           SKY/WX    TMP DP  RH WIND       PRES   REMARKS
BRYCE CANYON   CLOUDY    51  17  26 SE9       30.06S
CEDAR CITY     PTSUNNY   60  29  30 S10       29.91F
MILFORD        PTSUNNY   60  34  37 SW14      29.87F
ST GEORGE      SUNNY     62  30  29 CALM      29.87F
HANKSVILLE     CLOUDY    54  16  22 NW5       29.99F
BLANDING       SUNNY     56  28  34 S12       30.16F

$$

REGIONAL REPORTS     COLORADO/ARIZONA

CITY           SKY/WX    TMP DP  RH WIND       PRES   REMARKS
CRAIG, CO      CLOUDY    51  28  41 SE8       30.00F
GRAND JUNCTION SUNNY     59  23  25 SE17      29.98F
RIFLE, CO      SUNNY     53  27  36 N5        30.04F
MONTROSE, CO   SUNNY     58  22  24 N9        30.05F
CORTEZ, CO     SUNNY     60  29  30 S13G21    30.09F
COLORADO CITY    N/A     66  28  24 SE8       29.97F
PAGE, AZ       MOSUNNY   61  22  22 CALM      29.95F
GRAND CANYON   SUNNY     61  23  23 S15G26    30.06F
KINGMAN, AZ    MOSUNNY   80  29  15 S18G26    29.88S
FLAGSTAFF, AZ  SUNNY     60  20  21 SW15G25   30.10S

$$

REGIONAL REPORTS    NEVADA/IDAHO/WYOMING

CITY           SKY/WX    TMP DP  RH WIND       PRES   REMARKS
LAS VEGAS, NV  PTSUNNY   77  23  13 S13G22    29.76S
ELY, NY        SUNNY     60  30  32 S13       29.88F
ELKO, NV       CLOUDY    49  38  65 SW8       29.90S
POCATELLO, ID  MOSUNNY   54  35  48 W3        29.87S
BURLEY, ID     PTSUNNY   52  41  66 CALM      29.85S
FORT BRIDGER,    N/A     52  27  37 E6        29.96S
EVANSTON, WY   SUNNY     53  26  35 SW9       29.92F
ROCK SPRINGS,  CLOUDY    52  20  28 CALM      29.94F
KEMMERER, WY     N/A     50  23  34 SW3       29.95S

$$




USA.gov is the U.S. government's official web portal to all federal, state and local government web resources and services.